This is the latest recevied weather packets stored in our database for station/object VE4GLS. If no packets are shown the sender has not sent any weather packets the latest 10 day(s).
| Time | Temp. | Humidity | Pressure | Rain* | Wind** | Luminosity | Snow |
|---|---|---|---|---|---|---|---|
| 1778101774 | 8.33° C | 44% | 1011.9 hPa | 0 mm | - | - | - |
| 1778101356 | 7.78° C | 45% | 1012 hPa | 0 mm | - | - | - |
| 1778101174 | 8.33° C | 44% | 1012 hPa | 0 mm | - | - | - |
| 1778100573 | 7.78° C | 46% | 1012 hPa | 0 mm | - | - | - |
| 1778100455 | 7.78° C | 45% | 1012 hPa | 0 mm | - | - | - |
| 1778099973 | 8.33° C | 45% | 1012.1 hPa | 0 mm | - | - | - |
| 1778099555 | 8.33° C | 45% | 1012.2 hPa | 0 mm | - | - | - |
| 1778099375 | 8.33° C | 44% | 1012.3 hPa | 0 mm | - | - | - |
| 1778098775 | 7.78° C | 47% | 1012.2 hPa | 0 mm | - | - | - |
| 1778098655 | 7.78° C | 46% | 1012.3 hPa | 0 mm | - | - | - |
| 1778098175 | 7.78° C | 46% | 1012.3 hPa | 0 mm | - | - | - |
| 1778097754 | 7.22° C | 47% | 1012.3 hPa | 0 mm | - | - | - |
| 1778097574 | 7.22° C | 47% | 1012.3 hPa | 0 mm | - | - | - |
| 1778096973 | 7.78° C | 44% | 1012.6 hPa | 0 mm | - | - | - |
| 1778096855 | 7.78° C | 47% | 1012.5 hPa | 0 mm | - | - | - |
| 1778096374 | 6.67° C | 48% | 1012.7 hPa | 0 mm | - | - | - |
| 1778095956 | 6.67° C | 48% | 1012.6 hPa | 0 mm | - | - | - |
| 1778095774 | 6.11° C | 46% | 1012.8 hPa | 0 mm | - | - | - |
| 1778095174 | 6.67° C | 47% | 1012.8 hPa | 0 mm | - | - | - |
| 1778095056 | 6.67° C | 48% | 1012.7 hPa | 0 mm | - | - | - |
| 1778094573 | 6.67° C | 49% | 1012.9 hPa | 0 mm | - | - | - |
| 1778094155 | 6.67° C | 46% | 1012.9 hPa | 0 mm | - | - | - |
| 1778093973 | 7.22° C | 48% | 1012.9 hPa | 0 mm | - | - | - |
| 1778093375 | 6.67° C | 50% | 1012.9 hPa | 0 mm | - | - | - |
| 1778093255 | 6.11° C | 50% | 1012.9 hPa | 0 mm | - | - | - |
* Rain latest hour (hover to see other rain measurements)
** Current wind speed in m/s (hover to see current wind gust speed)